This demonstration page uses our WeatherBlox Daily Observations layout. Learn more.

Left ArrowRight Arrow

41.55636, -103.73856

Hourly Observations for October 9, 2021

Temp ( °F °C ) Dew Point ( °F °C ) Humidity (%) Winds ( mph kmh ) Pressure ( in mb ) Visibility ( mi km ) Precip ( " mm )
12:58 am 00:58 Partly Cloudy 56 13.4 40 4.7 56 56 S 6 9 29.76 1008 10 16 0.00 0.00
1:58 am 01:58 Mostly Cloudy 49 9.6 40 4.3 70 70 N 5 7 29.76 1008 10 16 0.00 0.00
2:58 am 02:58 Mostly Cloudy 51 10.3 40 4.7 69 69 SSW 5 7 29.74 1007 10 16 0.00 0.00
3:58 am 03:58 Mostly Cloudy 50 10.1 41 4.8 70 70 WSW 7 11 29.73 1007 10 16 0.00 0.00
4:58 am 04:58 Clear 48 8.9 40 4.6 75 75 W 5 7 29.71 1006 10 16 0.00 0.00
5:58 am 05:58 Clear 51 10.8 40 4.4 65 65 SSW 5 7 29.69 1005 10 16 0.00 0.00
6:58 am 06:58 Mostly Cloudy 48 8.7 40 4.7 76 76 WNW 9 15 29.73 1007 10 16 0.00 0.00
7:58 am 07:58 Mostly Cloudy 49 9.6 41 5.2 74 74 NW 12 19 29.74 1007 10 16 0.00 0.00
8:58 am 08:58 Partly Cloudy 56 13.4 41 5 57 57 WNW 13 20 29.73 1007 10 16 0.00 0.00
9:58 am 09:58 Mostly Sunny 62 16.8 41 5.2 47 47 NW 14 22 29.72 1007 10 16 0.00 0.00
10:58 am 10:58 Sunny 66 19 35 1.6 31 31 NW 23 37 29.71 1006 10 16 0.00 0.00
11:58 am 11:58 Sunny 68 20 32 0 26 26 WNW 22 35 29.68 1005 10 16 0.00 0.00
12:58 pm 12:58 Sunny 68 20.1 33 0.7 27 27 NW 28 44 29.67 1005 10 16 0.00 0.00
1:58 pm 13:58 Partly Cloudy 66 19.1 32 0.2 28 28 NW 26 43 29.70 1006 10 16 0.00 0.00
2:58 pm 14:58 Mostly Cloudy 66 19 29 -1.7 25 25 WNW 29 46 29.70 1006 10 16 0.00 0.00
3:58 pm 15:58 Partly Cloudy 67 19.4 28 -2.3 23 23 WNW 26 43 29.71 1006 10 16 0.00 0.00
4:58 pm 16:58 Sunny 66 18.9 26 -3.3 22 22 WNW 28 44 29.72 1006 10 16 0.00 0.00
5:58 pm 17:58 Mostly Sunny 63 17.4 28 -2.3 26 26 WNW 30 48 29.74 1007 10 16 0.00 0.00
6:58 pm 18:58 Clear 57 13.7 37 2.5 47 47 NW 18 30 29.80 1009 10 16 0.00 0.00
7:58 pm 19:58 Clear 53 11.5 37 2.6 55 55 WNW 20 31 29.81 1010 10 16 0.00 0.00
8:58 pm 20:58 Clear 50 10 38 3.2 63 63 NW 16 26 29.83 1010 10 16 0.00 0.00
9:58 pm 21:58 Clear 49 9.4 38 3.1 65 65 WNW 18 30 29.84 1010 10 16 0.00 0.00
10:58 pm 22:58 Mostly Cloudy 46 7.9 37 2.6 69 69 NW 9 15 29.84 1011 10 16 0.00 0.00
11:58 pm 23:58 Cloudy 50 9.8 37 2.5 61 61 WNW 8 13 29.84 1011 10 16 0.00 0.00

Powered by AerisWeather